London, United Kingdom

11:11 AM GMT on February 24, 2017 (GMT +0000)
Heathrow

Weather History for EGLL - October, 2014

Change the Weather History Date:

Friday, October 10, 2014

  Actual Average Record
Temperature  
Mean Temperature 56 °F -  
Max Temperature 65 °F 55 °F 71 °F (2005)
Min Temperature 48 °F 44 °F 42 °F (2016)
Degree Days  
Heating Degree Days 8    
Growing Degree Days 6 (Base 50)    
Moisture  
Dew Point 50 °F    
Average Humidity 80    
Maximum Humidity 94    
Minimum Humidity 45    
Precipitation  
Precipitation 0.12 in - - ()
Sea Level Pressure  
Sea Level Pressure 29.81 in    
Wind  
Wind Speed 9 mph ()    
Max Wind Speed 16 mph    
Max Gust Speed 26 mph    
Visibility 10.6 miles    
Events Rain    
Averages and records for this station are not official NWS values.
T = Trace of Precipitation, MM = Missing Value Source: Averaged Metar Reports

Daily Weather History Graph

Daily Weather History Graph

Search for Another Location

Airport or City:

Trip Planner

Search our weather history database for the weather conditions in past years. The results will help you decide how hot, cold, wet, or windy it might be!

Date:

Astronomy

Oct. 10, 2014 Rise Set
Actual Time 7:17 AM BST 6:19 PM BST
Civil Twilight 6:43 AM BST 6:53 PM BST
Nautical Twilight 6:04 AM BST 7:31 PM BST
Astronomical Twilight 5:25 AM BST 8:10 PM BST
Moon 7:32 PM BST (10/10) 9:36 AM BST (10/10)
Length of Visible Light 12h 09m
Length of Day
11h 02m
Waning Gibbous, 95% of the Moon is Illuminated
Oct 10
Waning Gibbous
Oct 15
Last Quarter
Oct 23
New
Oct 31
First Quarter
Nov 6
Full

Hourly Weather History & Observations

Time (BST) Temp. Dew Point Humidity Pressure Visibility Wind Dir Wind Speed Gust Speed Precip Events Conditions
12:00 AM 54 °F 50 °F 82% 29.67 in 12 mi SW 11.5 mph - -  
12:20 AM 53.6 °F 50.0 °F 88% 29.68 in - SW 8.1 mph - N/A   Clear
12:50 AM 53.6 °F 50.0 °F 88% 29.68 in - SW 11.5 mph - N/A   Clear
1:00 AM 53 °F 49 °F 84% 29.70 in 16 mi SW 11.5 mph - -  
1:20 AM 53.6 °F 50.0 °F 88% 29.71 in 6.2 mi SW 8.1 mph - N/A   Unknown
1:50 AM 51.8 °F 50.0 °F 94% 29.71 in 6.2 mi SSW 9.2 mph - N/A   Unknown
2:00 AM 52 °F 48 °F 83% 29.73 in 15 mi SSW 10.4 mph - -  
2:20 AM 51.8 °F 48.2 °F 88% 29.71 in 6.2 mi SW 9.2 mph - N/A   Unknown
2:50 AM 51.8 °F 48.2 °F 88% 29.74 in - SW 9.2 mph - N/A   Clear
3:00 AM 51 °F 48 °F 86% 29.74 in 15 mi SSW 11.5 mph - -  
3:20 AM 50.0 °F 48.2 °F 94% 29.74 in - SW 9.2 mph - N/A   Clear
3:50 AM 50.0 °F 48.2 °F 94% 29.74 in - SW 8.1 mph - N/A   Clear
4:00 AM 51 °F 47 °F 82% 29.75 in 15 mi SW 8.1 mph - -  
4:20 AM 50.0 °F 48.2 °F 94% 29.77 in - SW 6.9 mph - N/A   Clear
4:50 AM 50.0 °F 46.4 °F 87% 29.77 in - SW 5.8 mph - N/A   Clear
5:00 AM 50 °F 46 °F 82% 29.77 in 14 mi SSW 8.1 mph - -  
5:20 AM 48.2 °F 46.4 °F 93% 29.77 in - SSW 5.8 mph - N/A   Clear
5:50 AM 48.2 °F 46.4 °F 93% 29.77 in - SW 4.6 mph - N/A   Clear
6:00 AM 49 °F 46 °F 86% 29.78 in 12 mi SW 6.9 mph - -  
6:20 AM 48.2 °F 46.4 °F 93% 29.77 in - SSW 5.8 mph - N/A   Clear
6:50 AM 50.0 °F 48.2 °F 94% 29.77 in - SSW 6.9 mph - N/A   Clear
7:00 AM 50 °F 47 °F 84% 29.79 in 13 mi South 6.9 mph - -  
7:20 AM 50.0 °F 46.4 °F 87% 29.80 in - SSW 8.1 mph - N/A   Clear
7:50 AM 50.0 °F 48.2 °F 94% 29.80 in - SSW 8.1 mph - N/A   Clear
8:00 AM 51 °F 47 °F 80% 29.81 in 14 mi South 9.2 mph - -  
8:20 AM 50.0 °F 48.2 °F 94% 29.80 in - South 8.1 mph - N/A   Clear
8:50 AM 51.8 °F 50.0 °F 94% 29.83 in - South 8.1 mph - N/A   Clear
9:00 AM 54 °F 49 °F 79% 29.83 in 14 mi South 8.1 mph - -   Partly Cloudy
9:20 AM 53.6 °F 50.0 °F 88% 29.83 in - South 8.1 mph - N/A   Clear
9:50 AM 55.4 °F 50.0 °F 82% 29.83 in - SSW 9.2 mph - N/A   Clear
10:00 AM 56 °F 50 °F 73% 29.83 in 18 mi SSW 9.2 mph - -   Scattered Clouds
10:20 AM 57.2 °F 51.8 °F 82% 29.83 in 6.2 mi SW 8.1 mph - N/A   Partly Cloudy
10:50 AM 59.0 °F 51.8 °F 77% 29.83 in 6.2 mi SSW 11.5 mph - N/A   Partly Cloudy
11:00 AM 59 °F 50 °F 65% 29.84 in 22 mi SSW 10.4 mph - -   Mostly Cloudy
11:20 AM 60.8 °F 51.8 °F 72% 29.83 in 6.2 mi SW 13.8 mph - N/A   Partly Cloudy
11:50 AM 60.8 °F 51.8 °F 72% 29.83 in 6.2 mi SW 15.0 mph - N/A   Scattered Clouds
12:00 PM 61 °F 50 °F 57% 29.85 in 19 mi SSW 13.8 mph - -   Scattered Clouds
12:20 PM 62.6 °F 51.8 °F 68% 29.83 in 6.2 mi SSW 15.0 mph - N/A   Scattered Clouds
12:50 PM 62.6 °F 51.8 °F 68% 29.83 in 6.2 mi SSW 12.7 mph - N/A   Scattered Clouds
1:00 PM 62 °F 50 °F 55% 29.83 in 19 mi SSW 12.7 mph - -   Partly Cloudy
1:20 PM 64.4 °F 51.8 °F 64% 29.83 in 6.2 mi SW 12.7 mph - N/A   Partly Cloudy
1:50 PM 64.4 °F 50.0 °F 59% 29.83 in 6.2 mi SW 15.0 mph 26.5 mph N/A   Scattered Clouds
2:00 PM 64 °F 48 °F 45% 29.83 in 25 mi SSW 16.1 mph - -   Scattered Clouds
2:20 PM 60.8 °F 50.0 °F 68% 29.83 in 6.2 mi WSW 11.5 mph - N/A Rain Rain Showers
2:50 PM 59.0 °F 53.6 °F 82% 29.83 in 6.2 mi WSW 10.4 mph - N/A   Scattered Clouds
3:00 PM 59 °F 53 °F 73% 29.83 in 25 mi SW 10.4 mph - - Rain Rain
3:20 PM 60.8 °F 53.6 °F 77% 29.83 in 6.2 mi WSW 10.4 mph 21.9 mph N/A Rain Light Rain Showers
3:50 PM 62.6 °F 53.6 °F 72% 29.83 in 6.2 mi SW 9.2 mph - N/A   Scattered Clouds
4:00 PM 61 °F 52 °F 65% 29.83 in 19 mi SW 9.2 mph - -   Scattered Clouds
4:20 PM 62.6 °F 53.6 °F 72% 29.83 in 6.2 mi SSW 9.2 mph - N/A   Scattered Clouds
4:50 PM 62.6 °F 53.6 °F 72% 29.83 in 6.2 mi South 10.4 mph - N/A   Scattered Clouds
5:00 PM 63 °F 52 °F 59% 29.83 in 17 mi SSW 10.4 mph - -   Scattered Clouds
5:20 PM 60.8 °F 51.8 °F 72% 29.83 in 6.2 mi SW 11.5 mph - N/A   Partly Cloudy
5:50 PM 59.0 °F 51.8 °F 77% 29.83 in 6.2 mi SSW 10.4 mph - N/A   Partly Cloudy
6:00 PM 60 °F 51 °F 64% 29.84 in 19 mi South 8.1 mph - -   Scattered Clouds
6:20 PM 59.0 °F 51.8 °F 77% 29.83 in 6.2 mi South 10.4 mph - N/A   Partly Cloudy
6:50 PM 59.0 °F 53.6 °F 82% 29.83 in 6.2 mi South 9.2 mph - N/A   Partly Cloudy
7:00 PM 59 °F 52 °F 71% 29.85 in 19 mi South 8.1 mph - -   Partly Cloudy
7:20 PM 57.2 °F 53.6 °F 88% 29.86 in - South 6.9 mph - N/A   Clear
7:50 PM 57.2 °F 53.6 °F 88% 29.86 in 6.2 mi South 9.2 mph - N/A   Partly Cloudy
8:00 PM 58 °F 52 °F 73% 29.86 in 15 mi South 9.2 mph - -   Scattered Clouds
8:20 PM 57.2 °F 51.8 °F 82% 29.86 in 6.2 mi South 6.9 mph - N/A   Partly Cloudy
8:50 PM 57.2 °F 51.8 °F 82% 29.86 in 6.2 mi South 8.1 mph - N/A   Partly Cloudy
9:00 PM 57 °F 52 °F 76% 29.86 in 15 mi South 5.8 mph - -   Mostly Cloudy
9:20 PM 57.2 °F 51.8 °F 82% 29.86 in - South 6.9 mph - N/A   Clear
9:50 PM 57.2 °F 51.8 °F 82% 29.86 in - SSW 5.8 mph - N/A   Clear
10:00 PM 56 °F 51 °F 78% 29.86 in 16 mi South 5.8 mph - -   Scattered Clouds
10:20 PM 57.2 °F 51.8 °F 82% 29.86 in - South 5.8 mph - N/A   Clear
10:50 PM 55.4 °F 51.8 °F 88% 29.86 in - Variable 4.6 mph - N/A   Clear
11:00 PM 56 °F 50 °F 73% 29.86 in 18 mi SSE 5.8 mph - -   Scattered Clouds
11:20 PM 55.4 °F 50.0 °F 82% 29.86 in - South 4.6 mph - N/A   Clear
11:50 PM 53.6 °F 51.8 °F 94% 29.86 in 6.2 mi Variable 2.3 mph - N/A   Partly Cloudy